sat.trackr.live / text

‹ back to catalog

STARLINK-34393

NORAD 64724 · 2025-144A

PAYLOAD ACTIVE UNKNOWN

§ Identity

Operator
Country
US
Launch date
2025-07-02
Launch site
AFETR
Launch vehicle
Mass (kg)
RCS (m²)

Purposes: comms

External: N2YO · Heavens-Above · Gunter

§ Orbital elements

Epoch: 2026-09-20T11:27:06.552288Z

Period
93.85 min
Inclination
53.1614°
Eccentricity
0.0001704
Mean motion
15.34401722 rev/d
Perigee alt
461.5 km
Apogee alt
463.9 km
Semi-major
6,840.8 km
B*
4.8147e-4
RAAN
353.5203°
Arg perigee
106.0739°
Mean anomaly
254.0452°
Rev number
6,958

§ Raw data

STARLINK-343931 64724U 25144A   26263.47715917  .00015926  00000+0  48147-3 0  99982 64724  53.1614 353.5203 0001704 106.0739 254.0452 15.34401722 69583

JSON: /api/v1/satellites/64724 · /tle

For live sub-satellite position, see the globe view (requires WebGL).

§ Visibility from observer

Set your observer location to see the next 7 days of passes ≥ 10°. The values pass through the URL so the page stays shareable.

No JS? Fill the form by hand. The geolocation button needs JavaScript.